Regional Weather Roundup
Issued by NWS

Home | Current Version | Previous Version | Graphics & Text | Print | Product List | Glossary On
Versions: 1 2 3 4 5 6 7 8 9 10 11 12 13 14 15 16 17 18 19 20 21 22 23 24 25 26 27 28 29 30 31 32 33 34 35 36 37 38 39 40 41 42 43 44 45 46 47 48 49 50
030
ASUS43 KMKX 221500
RWRWI

WISCONSIN REGIONAL WEATHER ROUNDUP
NATIONAL WEATHER SERVICE MILWAUKEE/SULLIVAN WI
900 AM CST WED NOV 22 2017

NOTE: "FAIR" INDICATES FEW OR NO CLOUDS BELOW 12,000 FEET WITH NO
SIGNIFICANT WEATHER AND/OR OBSTRUCTIONS TO VISIBILITY.

WIZ001-002-006>008-014>016-023>028-221600-
NORTHWEST WISCONSIN

CITY           SKY/WX    TMP DP  RH WIND       PRES   REMARKS
SUPERIOR ARPT  CLOUDY    15  11  85 SW6       30.27F WCI   6
ASHLAND        SUNNY     18  10  71 SW10      30.28S WCI   6
HAYWARD        CLOUDY    17  10  74 SW10      30.27R WCI   5
SIREN          CLOUDY    16  12  84 SW3       30.29S
CUMBERLAND     CLOUDY    16  12  86 SW8       30.28R WCI   5
RICE LAKE      CLOUDY    16  12  85 SW6       30.31S WCI   7
CHETEK           N/A     15  10  83 CALM      30.31R
LADYSMITH      CLOUDY    17  12  80 SW6       30.30R WCI   9
EAU CLAIRE     NOT AVBL
MENOMONIE      CLOUDY    19  13  76 S3        30.33S
NEW RICHMOND   CLOUDY    17  13  84 SW3       30.32R
OSCEOLA        CLOUDY    17  13  82 SW5       30.35S WCI  10
$$

WIZ003>005-009-010-017-018-221600-
NORTH CENTRAL WISCONSIN

CITY           SKY/WX    TMP DP  RH WIND       PRES   REMARKS
MANITOWISH WTR CLOUDY    14  11  87 SW6       30.22S WCI   5
ARBOR VITAE    CLOUDY    17  12  83 SW5       30.21F WCI  10
WOODRUFF       CLOUDY    17  12  83 SW5       30.21F WCI  10
RHINELANDER    CLOUDY    18  12  77 SW7       30.23F WCI   9
EAGLE RIVER    CLOUDY    19  12  77 SW7       30.21S WCI   9
LAND O LAKES   CLOUDY    18  13  80 SW5       30.22S WCI  11
PHILLIPS       CLOUDY    15  10  82 SW5       30.24S WCI   8
TOMAHAWK       MOSUNNY   14  10  87 CALM      30.26F
MEDFORD        SUNNY     16  10  79 SW5       30.26F WCI   8
MERRILL        SUNNY     19  10  70 NW3       30.27F
$$

WIZ029-030-035-036-043>047-221600-
CENTRAL WISCONSIN

CITY           SKY/WX    TMP DP  RH WIND       PRES   REMARKS
WAUSAU         SUNNY     19  10  68 W5        30.28S WCI  12
MOSINEE        SUNNY     19  12  73 W6        30.30S WCI  11
MARSHFIELD     SUNNY     18  11  74 W7        30.28F WCI   9
STEVENS POINT  SUNNY     18  10  69 W3        30.31S
WAUPACA        SUNNY     23  14  68 W5        30.33S WCI  17
WAUTOMA        SUNNY     20  13  74 W3        30.34S
WISC RAPIDS    SUNNY     20  13  74 NW6       30.34R WCI  12
CAMP DOUGLAS   SUNNY     19  12  73 W5        30.35R WCI  13
$$

WIZ011>013-019>022-031-037>040-048>050-221600-
NORTHEAST WISCONSIN

CITY           SKY/WX    TMP DP  RH WIND       PRES   REMARKS
ANTIGO         CLOUDY    17  11  77 W6        30.26S WCI   9
SHAWANO        CLOUDY    25  14  64 W6        30.31R WCI  18
OCONTO         CLOUDY    26  14  62 W8        30.31R WCI  17
STURGEON BAY   CLOUDY    26  15  63 W6        30.30  WCI  19
GREEN BAY      CLOUDY    26  16  65 W8        30.31S WCI  18
MANITOWOC      CLOUDY    26  16  65 W5        30.33R WCI  20
APPLETON       MOSUNNY   21  12  68 W7        30.30R WCI  13
CLINTONVILLE   SUNNY     21  10  63 W8        30.32R WCI  12
OSHKOSH        SUNNY     22  15  75 W7        30.32R WCI  13
$$

WIZ032>034-041-042-053>061-221600-
SOUTHWEST WISCONSIN

CITY           SKY/WX    TMP DP  RH WIND       PRES   REMARKS
LA CROSSE      SUNNY     22  10  60 CALM      30.37S
SPARTA         CLOUDY    16  12  84 CALM      30.36R
VIROQUA        SUNNY     18  14  83 CALM      30.32S
BOSCOBEL       SUNNY     22  15  75 CALM      30.38S
PRAIRIE DU CHI SUNNY     21  13  71 NW3       30.38R
PLATTEVILLE    SUNNY     21  18  87 W5        30.36R WCI  15
$$

WIZ056-057-062-063-064-067-068-221600-
SOUTH CENTRAL WISCONSIN

CITY           SKY/WX    TMP DP  RH WIND       PRES   REMARKS
REEDSBURG      SUNNY     19  11  74 CALM      30.34S
BARABOO/DELLS  SUNNY     19  12  74 W3        30.34R
LONE ROCK      NOT AVBL
MINERAL POINT  SUNNY     21  19  93 CALM      30.33S
MADISON        SUNNY     21  13  71 W3        30.35R
MIDDLETON      SUNNY     23  15  71 NW5       30.35S WCI  17
WATERTOWN      SUNNY     20  15  80 CALM      30.34S
MONROE         SUNNY     23  14  68 NW5       30.33R WCI  17
JANESVILLE     SUNNY     25  16  68 CALM      30.34S
$$

WIZ051-052-058>065-066-070>072-221600-
SOUTHEAST WISCONSIN

CITY           SKY/WX    TMP DP  RH WIND       PRES   REMARKS
MILWAUKEE      MOSUNNY   26  15  63 NW6       30.34R WCI  19
WAUKESHA       SUNNY     21  14  73 W5        30.34R WCI  15
MILWAUKEE/TIMM SUNNY     23  12  63 W3        30.35R
RACINE         MOSUNNY   24  15  68 W7        30.36R WCI  16
BURLINGTON     SUNNY     26  21  82 NW3       30.34S
KENOSHA        SUNNY     25  16  68 NW8       30.34R WCI  16
FOND DU LAC    FLURRIES  23  14  68 W5        30.33R WCI  17
SHEBOYGAN      SUNNY     26  16  65 NW5       30.32R WCI  20
WEST BEND      SUNNY     21  14  73 NW5       30.33R WCI  15
JUNEAU         SUNNY     19  13  76 CALM      30.35R
$$

LSZ147-162-221600-
LAKE SUPERIOR

STATION/POSITION TIME  TEMP    WIND        PRES    WAVE
                       AIR SEA DIR/SP/G            HT/PER
                 (UTC) (F)     (DEG/KT/KT) (MB)    (FT/S)
DEVILS ISLAND    1400   22     250/ 15/ 19 1025.2F
SAXON HARBOR     1440   19     190/  4/  9 1024.7S
$$

LMZ867-665-643>646-221600-
LAKE MICHIGAN

STATION/POSITION TIME  TEMP    WIND        PRES    WAVE
                       AIR SEA DIR/SP/G            HT/PER
                 (UTC) (F)     (DEG/KT/KT) (MB)    (FT/S)
N MID LAKE BUOY  1350   30 47  320/ 10/ 14 1025.8R   3/ 4
NORTHPORT PIER   1440   29     320/  8/ 11 1025.1S
KEWAUNEE LAKESHO 1430   26     350/  3/  7 1025.5R
SHEBOYGAN LAKESH 1400   22     300/  7/  8 1027.5R
PORT WASHINGTON  1430   24     290/  6/  9 1028.4R
MILWAUKEE LAKESH 1430   24     310/  7/  9   N/A
S MID LAKE BUOY  1350   30 47  350/  2/ 12 1026.9S   4/ 7
KENOSHA   LAKESH 1400   22     280/  9/ 11 1027.1
$$

TC  - TEMPERATURE IN CELSIUS
VSB - VISIBILITY IN STATUTE MILES
WCI - WIND CHILL INDEX
HX  - HEAT INDEX





USA.gov is the U.S. government's official web portal to all federal, state and local government web resources and services.